PEGASUS DEB, 24529

Orbit data source: Space-Track

PEGASUS DEB, 24529 is space debris in LEO originally from a launch on Thu, 19 May 1994 UTC launched from the Air Force Western Test Range (AFWTR). Debris objects in space refer to the collection of defunct objects orbiting the Earth. Examples of debris include non-operational satellites, rocket bodies, and fragments generated from explosions, collisions, or faulty payload assembly.

Loading next visibility...
Identifier
24529, 1994-029WD
Orbit
LEO
Country
Flag of USUS
Related business
Manufacturer
Unknown
Mission
Spacecraft
Bus & Motor
Unknown
Mass
Unknown
Launch date (UTC)
1994-05-19 (32 years ago)
Launch vehicle
Unknown
Launch site
Air Force Western Test Range (AFWTR)
Object type
Payload
Rocket body
Debris
Shape & HBR
Unknown shape, 0.1 m
Radar Cross Section
Small (<0.1 m²)

Expand to show TLE details & history
Last TLE update: 10 hours ago

TLE from 10 hours ago
0 PEGASUS DEB
1 24529U 94029WD  26062.50882657  .00002891  00000-0  27388-3 0  9994
2 24529  81.9724 227.6364 0105857 273.6571 144.2174 14.89094880236557
Epoch: 2026-03-03T12:12Z
TLE epoch observation values (Epoch: 2026-03-03T12:12:42.615Z)
Latitude
57.76949°
Longitude
-103.97291°
Altitude
670.704 km
Speed
7.495 km/s
True Right ascension
16h 01m 57s
True Declination
57° 36' 44"
Sunlit
Object was in daylight at epoch
Visualization orbit readout
Latitude
Unknown
Longitude
Unknown
Altitude
Unknown
Speed
Unknown
Apparent Right ascension
Unknown
Apparent Declination
Unknown
Sunlit
N/A
Visualization observer readout
Local Sidereal Time
01:59:19
Azimuth
Unknown
Elevation
Unknown
Doppler factor
Unknown
Orbital elements
Apogee altitude
671.641 km
Perigee altitude
523.951 km
Semi-major axis
6,975.933 km
Eccentricity
0.01059
Inclination
81.9724°
RAAN
227.6364°
Arg. of periapsis
273.6571°
True anomaly
144.91912°
Mean anomaly
144.2174°
Eccentric anomaly
144.56901°
Mean motion
3.72512 °/min
Orbital period
96.64 mins
BSTAR
0.00027388
Loading maneuver chart data...
Computing Atmospheric mass density...
Loading historical data...
Loading historical data...
Loading historical data...
Loading historical data...
Loading historical data...
Loading historical data...
Loading historical data...

Documentation

Showing up to 5 results
|